Home   Weather   Tsingtao   Past weeks

Flag for China Past Weather in Tsingtao, Shandong, China — Yesterday and Last 2 Weeks

Now
66 °F

Passing clouds.


Feels Like: 66 °F
Forecast: 52 / 63 °F
Wind: 3 mph from West

Location: Qingdao Airport

Current Time: Apr 25, 2017 at 2:58:06 pm

Latest Report: Apr 25, 2017 at 2:00 pm


Visibility: N/A

Pressure: 30.09 "Hg

Humidity: 43%

Dew Point: 43 °F

Location of TsingtaoLocation

Past Weather in Tsingtao — Graph

°F

Tsingtao Temperature Yesterday

Maximum temperature yesterday: 70 °F (at 1:00 pm)
Minimum temperature yesterday: 57 °F (at 1:00 am)
Average temperature yesterday: 62 °F

High & Low Weather Summary for the Past Weeks

 TemperatureHumidityPressure
High82 °F (Apr 15, 3:00 pm)94% (Apr 17, 4:00 am)30.09 "Hg (Apr 17, 4:00 am)
Low43 °F (Apr 12, 5:00 am)11% (Apr 11, 3:00 pm)29.42 "Hg (Apr 18, 3:00 am)
Average61 °F51%29.86 "Hg
* Reported Apr 10 1:00 pm — Apr 25 1:00 pm, Tsingtao, Weather by CustomWeather, © 2017

Note: Actual official high and low records may vary slightly from our data, if they occured in-between our weather recording intervals... More about our weather records

Advertising

Tsingtao Weather History for the Previous 24 Hours

Scroll right to see more
 ConditionsComfort  
Time TempWeatherWind HumidityBarometerVisibility
1:00 pm
Tue, Apr 25
64 °FPassing clouds.6 mph46%30.09 "HgN/A
12:00 pm66 °FSunny.3 mph46%30.09 "Hg10 mi
11:00 am63 °FPassing clouds.13 mph56%30.09 "HgN/A
10:00 am66 °FSunny.8 mph37%30.09 "Hg10 mi
9:00 am64 °FSunny.13 mph40%30.07 "Hg10 mi
8:00 am61 °FClear.10 mph55%30.07 "Hg4 mi
7:00 am57 °FFog.8 mph82%30.07 "Hg2 mi
6:00 am57 °FFog.6 mph82%30.04 "Hg2 mi
5:00 am54 °FFog.1 mph88%30.04 "Hg2 mi
4:00 am52 °FFog.3 mph88%30.01 "Hg2 mi
3:00 am54 °FFog.No wind88%30.01 "Hg2 mi
2:00 am55 °FFog.1 mph88%29.98 "Hg2 mi
1:00 am55 °FClear.3 mph82%29.98 "Hg4 mi
12:00 am57 °FClear.1 mph77%29.98 "Hg4 mi
11:00 pm
Mon, Apr 24
59 °FClear.3 mph77%29.98 "Hg4 mi
10:00 pm59 °FClear.1 mph77%29.98 "Hg4 mi
9:00 pm61 °FClear.1 mph68%29.98 "Hg4 mi
8:00 pm59 °FClear.1 mph72%29.95 "Hg10 mi
7:00 pm63 °FClear.6 mph64%29.92 "Hg10 mi
6:00 pm63 °FSunny.6 mph64%29.92 "Hg10 mi
5:00 pm64 °FSunny.8 mph60%29.89 "Hg10 mi
4:00 pm64 °FSunny.13 mph60%29.89 "Hg10 mi
3:00 pm64 °FSunny.17 mph56%29.86 "Hg10 mi
2:00 pm66 °FSunny.17 mph49%29.89 "Hg10 mi
Weather by CustomWeather, © 2017

See weather overviewHow to use our weather pages